Home > Products > State Listing > Arizona Data
Latest:
 RWRAZ |
  [top]

000
ASUS45 KPSR 291210
RWRAZ

ARIZONA HOURLY REGIONAL WEATHER ROUNDUP
NATIONAL WEATHER SERVICE PHOENIX AZ
500 AM MST SUN MAY 29 2016

NOTE: FAIR INDICATES FEW OR NO CLOUDS BELOW 12,000 FEET WITH NO
SIGNIFICANT WEATHER AND/OR OBSTRUCTIONS TO VISIBILITY.

AZZ001>003-036-291300-
NORTHWEST ARIZONA

CITY           SKY/WX    TMP DP  RH WIND       PRES   REMARKS
KINGMAN        CLEAR     58  28  32 MISG      29.98R
6HR MIN TEMP:  57; 6HR MAX TEMP:  71;

$$

AZZ004>008-015-016-018-291300-
NORTH CENTRAL ARIZONA

CITY           SKY/WX    TMP DP  RH WIND       PRES   REMARKS
GRAND CANYON   CLEAR     31  22  69 CALM      30.16S
6HR MIN TEMP:  30; 6HR MAX TEMP:  44;

WILLIAMS       CLEAR     37  21  52 S9        30.23S WCI  31
PRESCOTT       CLEAR     50  28  42 S6        30.09R
6HR MIN TEMP:  50; 6HR MAX TEMP:  60;

FLAGSTAFF      CLEAR     32  20  61 CALM      30.18R
6HR MIN TEMP:  31; 6HR MAX TEMP:  43;

PAYSON         CLEAR     52  23  32 CALM      30.13R
$$

AZZ009>014-017-291300-
NORTHEAST ARIZONA

CITY           SKY/WX    TMP DP  RH WIND       PRES   REMARKS
WINSLOW        CLEAR     46  23  40 E6        30.10R
6HR MIN TEMP:  44; 6HR MAX TEMP:  62;

SAINT JOHNS    CLEAR     45  22  40 SW5       30.14R
6HR MIN TEMP:  44; 6HR MAX TEMP:  57;

WINDOW ROCK    CLEAR     38  24  57 CALM      30.19R
6HR MIN TEMP:  35; 6HR MAX TEMP:  57;

SHOW LOW       CLEAR     43  18  36 CALM      30.19R
$$

AZZ023-291300-
GREATER PHOENIX AREA

CITY           SKY/WX    TMP DP  RH WIND       PRES   REMARKS
PHOENIX        CLEAR     72  37  28 CALM      29.89R
6HR MIN TEMP:  72; 6HR MAX TEMP:  83;

BUCKEYE        CLEAR     63  32  31 CALM      29.91R
LUKE AFB       CLEAR     70  37  29 CALM      29.89R
6HR MIN TEMP:  69; 6HR MAX TEMP:  82;

DEER VALLEY    CLEAR     69  31  24 CALM      29.91R
6HR MIN TEMP:  67; 6HR MAX TEMP:  81;

SCOTTSDALE     CLEAR     69  39  33 W3        29.92R
6HR MIN TEMP:  69; 6HR MAX TEMP:  82;

MESA-GATEWAY   CLEAR     64  37  36 E6        29.92R
$$

AZZ027-028-291300-
SOUTHWEST MARICOPA COUNTY AND PINAL COUNTY

CITY           SKY/WX    TMP DP  RH WIND       PRES   REMARKS
CASA GRANDE    CLEAR     63  28  27 CALM      29.93R
6HR MIN TEMP:  61; 6HR MAX TEMP:  79;

GILA BEND      FAIR      65  30  26 S9        29.87S
6HR MIN TEMP:  64; 6HR MAX TEMP:  79;

$$

AZZ503-504-507>509-291300-
SOUTHEAST ARIZONA

CITY           SKY/WX    TMP DP  RH WIND       PRES   REMARKS
TUCSON         CLEAR     62  22  21 SE9       30.01R
6HR MIN TEMP:  61; 6HR MAX TEMP:  76;

DAVIS-MONTHAN  CLEAR     59  14  17 SE7       29.99R
6HR MIN TEMP:  59; 6HR MAX TEMP:  73;

NOGALES        CLEAR     52  24  33 NE5       30.05R
6HR MIN TEMP:  51; 6HR MAX TEMP:  68;

SIERRA VISTA   CLEAR     56  12  17 CALM      30.10R
6HR MIN TEMP:  55; 6HR MAX TEMP:  68;

DOUGLAS        CLEAR     55  10  16 E6        30.08R
6HR MIN TEMP:  47; 6HR MAX TEMP:  62;

SAFFORD        CLEAR     55  12  18 E3        30.01R
6HR MIN TEMP:  55; 6HR MAX TEMP:  78;

$$

AZZ020-021-025-026-031-291300-
SOUTHWEST ARIZONA

CITY           SKY/WX    TMP DP  RH WIND       PRES   REMARKS
YUMA           CLEAR     68  41  37 N3        29.82R
6HR MIN TEMP:  68; 6HR MAX TEMP:  77;

$$

CAZ031-033-041-043-047-048-061-291300-
SOUTHERN CALIFORNIA

CITY           SKY/WX    TMP DP  RH WIND       PRES   REMARKS
DOWNTOWN L.A.  CLOUDY    61  54  77 CALM      29.96R
6HR MIN TEMP:  61; 6HR MAX TEMP:  62;

L.A. AIRPORT   CLOUDY    60  54  80 W6        29.97R
6HR MIN TEMP:  59; 6HR MAX TEMP:  60;

SAN DIEGO      DRIZZLE   60  56  86 NW3       29.98S
6HR MIN TEMP:  60; 6HR MAX TEMP:  63; 6HR PCP: TRACE;

BURBANK        CLOUDY    58  54  86 CALM      29.96R
6HR MIN TEMP:  58; 6HR MAX TEMP:  58;

ONTARIO        CLOUDY    60  53  77 W6        29.95S
6HR MIN TEMP:  59; 6HR MAX TEMP:  61;

RIVERSIDE      CLOUDY    60  53  77 W5        29.96R
6HR MIN TEMP:  60; 6HR MAX TEMP:  61;

PALM SPRINGS   CLEAR     67  53  61 SE5       29.86R
6HR MIN TEMP:  67; 6HR MAX TEMP:  76;

EL CENTRO NAS  CLEAR     69  49  48 SW5       29.83R
6HR MIN TEMP:  65; 6HR MAX TEMP:  77;

IMPERIAL       CLEAR     71  44  37 E3        29.81R
6HR MIN TEMP:  68; 6HR MAX TEMP:  77;

BLYTHE         CLEAR     70  39  32 S7        29.84R
6HR MIN TEMP:  68; 6HR MAX TEMP:  80;

NEEDLES        CLEAR     75  31  19 SW5       29.84R
6HR MIN TEMP:  74; 6HR MAX TEMP:  85;

$$

NVZ020-UTZ003-291300-
SOUTHERN NEVADA-UTAH

CITY           SKY/WX    TMP DP  RH WIND       PRES   REMARKS
LAS VEGAS      PTCLDY    73  27  18 SW3       29.84R
6HR MIN TEMP:  72; 6HR MAX TEMP:  80;

SALT LAKE CITY MOCLDY    57  41  55 E8        30.07R
6HR MIN TEMP:  57; 6HR MAX TEMP:  63;

$$

NMZ009-TXZ055-291300-
NEW MEXICO-WEST TEXAS

CITY           SKY/WX    TMP DP  RH WIND       PRES   REMARKS
ALBUQUERQUE    PTCLDY    56  25  30 N3        30.13R
6HR MIN TEMP:  56; 6HR MAX TEMP:  69;

EL PASO        MOCLDY    76   4   6 NW7       30.05S
6HR MIN TEMP:  66; 6HR MAX TEMP:  81;

$$


........................KEY........................
SKY/WX - SKY CONDITION/WEATHER
TMP    - TEMPERATURE IN FAHRENHEIT
DP     - DEW POINT IN FAHRENHEIT
RH     - RELATIVE HUMIDITY IN PERCENT
WIND   - DIRECTION AND SPEED IN MILES PER HOUR (MPH)
VRB    - VARIABLE WIND DIRECTION
PRES   - MEAN SEA LEVEL PRESSURE IN INCHES OF MERCURY
         F - FALLING PRESSURE   R - RISING PRESSURE
         S - STEADY PRESSURE
VSB    - VISIBILITY IN MILES
HX     - HEAT INDEX IN FAHRENHEIT
WCI    - WIND CHILL INDEX IN FAHRENHEIT
TC     - TEMPERATURE IN CELSIUS WHICH IS ALSO KNOWN AS
         TEMPERATURE IN CENTIGRADE
AFB    - AIR FORCE BASE
         LUKE AFB IS LUKE AIR FORCE BASE
         DAVIS-MONTHAN IS DAVIS-MONTHAN AIR FORCE BASE
NAS    - NAVAL AIR STATION
         EL CENTRO NAS IS EL CENTRO NAVAL AIR STATION
N/A    - NOT AVAILABLE






000
ASUS45 KPSR 290510
RWRAZ

ARIZONA HOURLY REGIONAL WEATHER ROUNDUP
NATIONAL WEATHER SERVICE PHOENIX AZ
1000 PM MST SAT MAY 28 2016

NOTE: FAIR INDICATES FEW OR NO CLOUDS BELOW 12,000 FEET WITH NO
SIGNIFICANT WEATHER AND/OR OBSTRUCTIONS TO VISIBILITY.

AZZ001>003-036-290600-
NORTHWEST ARIZONA

CITY           SKY/WX    TMP DP  RH WIND       PRES   REMARKS
KINGMAN        CLEAR     70  27  20 MISG      29.95R
$$

AZZ004>008-015-016-018-290600-
NORTH CENTRAL ARIZONA

CITY           SKY/WX    TMP DP  RH WIND       PRES   REMARKS
GRAND CANYON   PTCLDY    45  26  47 CALM      30.15R
WILLIAMS       CLEAR     57  16  19 SW6G12    30.23R
PRESCOTT       CLEAR     62  21  20 S6        30.06R
FLAGSTAFF      CLEAR     45  22  40 CALM      30.18R
PAYSON         CLEAR     66  21  18 CALM      30.08R
PAGE           CLEAR     72  30  21 CALM      29.98R
$$

AZZ009>014-017-290600-
NORTHEAST ARIZONA

CITY           SKY/WX    TMP DP  RH WIND       PRES   REMARKS
WINSLOW        CLEAR     63  22  20 SW9       30.04R
SAINT JOHNS    PTCLDY    62  17  17 S6        30.08R
WINDOW ROCK    MOCLDY    64  27  24 N10       30.16S
SHOW LOW       CLEAR     54  18  24 S9        30.14R
$$

AZZ023-290600-
GREATER PHOENIX AREA

CITY           SKY/WX    TMP DP  RH WIND       PRES   REMARKS
PHOENIX        CLEAR     85  34  16 W17G24    29.80R
BUCKEYE        CLEAR     81  32  17 SW9       29.84R
LUKE AFB       CLEAR     85  35  16 SW23      29.80R
DEER VALLEY    CLEAR     83  34  17 SW13      29.82R
SCOTTSDALE     CLEAR     84  34  16 W14G23    29.84R
MESA-GATEWAY   CLEAR     82  34  17 SW10      29.84R
$$

AZZ027-028-290600-
SOUTHWEST MARICOPA COUNTY AND PINAL COUNTY

CITY           SKY/WX    TMP DP  RH WIND       PRES   REMARKS
CASA GRANDE    CLEAR     82  32  16 W13       29.86R
GILA BEND      FAIR      81  29  15 S6        29.83R
$$

AZZ503-504-507>509-290600-
SOUTHEAST ARIZONA

CITY           SKY/WX    TMP DP  RH WIND       PRES   REMARKS
TUCSON         CLEAR     79  26  14 NW5       29.95R
DAVIS-MONTHAN  CLEAR     78  12   8 W1        29.94R
NOGALES        CLEAR     70   9   9 SE5       30.03R
SIERRA VISTA   CLEAR     69   2   7 SW17      30.08S
DOUGLAS        CLEAR     66   4   8 CALM      30.06R
SAFFORD        CLEAR     79  13   8 NW14      29.91R
$$

AZZ020-021-025-026-031-290600-
SOUTHWEST ARIZONA

CITY           SKY/WX    TMP DP  RH WIND       PRES   REMARKS
YUMA           CLEAR     76  38  25 S3        29.80R
$$

CAZ031-033-041-043-047-048-061-290600-
SOUTHERN CALIFORNIA

CITY           SKY/WX    TMP DP  RH WIND       PRES   REMARKS
DOWNTOWN L.A.  CLOUDY    62  53  72 VRB3      29.96R
L.A. AIRPORT   CLOUDY    59  53  80 SW6       29.97R
SAN DIEGO      CLOUDY    63  55  75 W6        29.99R
BURBANK        CLOUDY    58  53  84 S7        29.96R
ONTARIO        MOCLDY    61  54  77 W10       29.95R
RIVERSIDE      CLEAR     61  53  75 W8        29.95R
PALM SPRINGS   CLEAR     79  53  40 NW14      29.82R
EL CENTRO NAS  CLEAR     75  40  28 SE6       29.78R
IMPERIAL       CLEAR     80  40  23 SE8       29.76R
BLYTHE         CLEAR     84  34  16 SW6       29.79R
NEEDLES        CLEAR     87  28  12 W13       29.79R
$$

NVZ020-UTZ003-290600-
SOUTHERN NEVADA-UTAH

CITY           SKY/WX    TMP DP  RH WIND       PRES   REMARKS
LAS VEGAS      CLEAR     81  24  12 SW6       29.80R
SALT LAKE CITY MOCLDY    65  40  39 SE6       30.07R
$$

NMZ009-TXZ055-290600-
NEW MEXICO-WEST TEXAS

CITY           SKY/WX    TMP DP  RH WIND       PRES   REMARKS
ALBUQUERQUE    MOCLDY    70  17  13 E6        30.08R
EL PASO        PTCLDY    74   3   6 N7        29.98R
$$


........................KEY........................
SKY/WX - SKY CONDITION/WEATHER
TMP    - TEMPERATURE IN FAHRENHEIT
DP     - DEW POINT IN FAHRENHEIT
RH     - RELATIVE HUMIDITY IN PERCENT
WIND   - DIRECTION AND SPEED IN MILES PER HOUR (MPH)
VRB    - VARIABLE WIND DIRECTION
PRES   - MEAN SEA LEVEL PRESSURE IN INCHES OF MERCURY
         F - FALLING PRESSURE   R - RISING PRESSURE
         S - STEADY PRESSURE
VSB    - VISIBILITY IN MILES
HX     - HEAT INDEX IN FAHRENHEIT
WCI    - WIND CHILL INDEX IN FAHRENHEIT
TC     - TEMPERATURE IN CELSIUS WHICH IS ALSO KNOWN AS
         TEMPERATURE IN CENTIGRADE
AFB    - AIR FORCE BASE
         LUKE AFB IS LUKE AIR FORCE BASE
         DAVIS-MONTHAN IS DAVIS-MONTHAN AIR FORCE BASE
NAS    - NAVAL AIR STATION
         EL CENTRO NAS IS EL CENTRO NAVAL AIR STATION
N/A    - NOT AVAILABLE






    US Dept of Commerce
    National Oceanic and Atmospheric Administration
    National Weather Service
    1325 East West Highway
    Silver Spring, MD 20910
    Page Author: NWS Internet Services Team
Disclaimer
Information Quality
Credits
Glossary
Privacy Policy
Freedom of Information Act (FOIA)
About Us
Career Opportunities